Voltar ao catálogo

STARLINK-3863

AtivoComunicaçõesVLEO
NORAD 52465·PAYLOAD·🇺🇸 United States

Lançado May 6, 2022 de Cape Canaveral Space Force Station

Loading…

Próximas Passagens (próximas 24 horas)

TLE

AtualizadoSource: CelesTrak SupGP

Época: Sep 14, 2026, 20:47 UTC

1 52465C 22049Q   26257.86645833  .00016827  00000+0  48151-3 0  2576
2 52465  53.1585 270.5692 0001141  82.1118 153.0189 15.35386270    18

Acompanhe STARLINK-3863 em tempo real com AllMySat

Download on the App Store